Middleton, WI

5:51 AM CDT on June 27, 2017 (GMT -0500)
Middleton

Weather History for KC29 - February, 2013

Change the Weather History Date:

Thursday, February 28, 2013

  Actual Average (KMSN) Record (KMSN)
Temperature  
Mean Temperature 31 °F -  
Max Temperature 35 °F 37 °F 58 °F (2016)
Min Temperature 26 °F 18 °F -20 °F (1962)
Degree Days  
Heating Degree Days 34    
Moisture  
Dew Point 25 °F    
Average Humidity 75    
Maximum Humidity 93    
Minimum Humidity 61    
Precipitation  
Precipitation 0.00 in - - ()
Sea Level Pressure  
Sea Level Pressure 29.97 in    
Wind  
Wind Speed 13 mph (North)    
Max Wind Speed 16 mph    
Max Gust Speed 22 mph    
Visibility 10 miles    
Events      
Averages and records for this station are not official NWS values.
T = Trace of Precipitation, MM = Missing Value Source: NWS Daily Summary

Daily Weather History Graph

Daily Weather History Graph

Search for Another Location

Airport or City:

Trip Planner

Search our weather history database for the weather conditions in past years. The results will help you decide how hot, cold, wet, or windy it might be!

Date:

Astronomy

Feb. 28, 2013 Rise Set
Actual Time 6:35 AM CST 5:46 PM CST
Civil Twilight 6:06 AM CST 6:14 PM CST
Nautical Twilight 5:33 AM CST 6:47 PM CST
Astronomical Twilight 5:01 AM CST 7:20 PM CST
Moon 9:20 PM CST (2/28) 7:38 AM CST (2/28)
Length of Visible Light 12h 08m
Length of Day
11h 11m
Waning Gibbous, 90% of the Moon is Illuminated
Feb 28
Waning Gibbous
Mar 4
Last Quarter
Mar 11
New
Mar 19
First Quarter
Mar 27
Full

Hourly Weather History & Observations

Time (CST) Temp. Windchill Dew Point Humidity Pressure Visibility Wind Dir Wind Speed Gust Speed Precip Events Conditions
12:15 AM 32.9 °F 22.8 °F 30.9 °F 92% 29.80 in 10.0 mi North 15.0 mph - N/A   Overcast
12:35 AM 32.9 °F 22.8 °F 31.1 °F 93% 29.80 in 10.0 mi North 15.0 mph - N/A   Overcast
12:55 AM 32.9 °F 22.8 °F 30.4 °F 90% 29.80 in 10.0 mi North 15.0 mph - N/A   Overcast
1:15 AM 32.9 °F 22.8 °F 29.5 °F 87% 29.81 in 10.0 mi North 15.0 mph - N/A   Overcast
1:35 AM 32.9 °F 22.4 °F 29.3 °F 87% 29.81 in 10.0 mi North 16.1 mph - N/A   Overcast
1:55 AM 32.5 °F 21.9 °F 28.9 °F 87% 29.81 in 10.0 mi North 16.1 mph - N/A   Overcast
2:15 AM 32.5 °F 22.3 °F 28.8 °F 86% 29.81 in 10.0 mi North 15.0 mph 18.4 mph N/A   Overcast
2:35 AM 32.5 °F 22.3 °F 28.4 °F 85% 29.82 in 10.0 mi North 15.0 mph 20.7 mph N/A   Overcast
2:55 AM 32.9 °F 23.7 °F 28.4 °F 84% 29.83 in 10.0 mi North 12.7 mph 19.6 mph N/A   Overcast
3:15 AM 32.5 °F 23.7 °F 28.0 °F 83% 29.83 in 10.0 mi North 11.5 mph - N/A   Overcast
3:35 AM 32.7 °F 23.4 °F 27.9 °F 82% 29.83 in 10.0 mi North 12.7 mph - N/A   Overcast
3:55 AM 32.9 °F 23.7 °F 27.5 °F 81% 29.84 in 10.0 mi North 12.7 mph - N/A   Overcast
4:35 AM 32.4 °F 23.0 °F 27.1 °F 81% 29.85 in 10.0 mi North 12.7 mph - N/A   Overcast
4:55 AM 32.4 °F 23.0 °F 27.1 °F 81% 29.86 in 10.0 mi North 12.7 mph - N/A   Overcast
5:15 AM 32.0 °F 23.0 °F 27.3 °F 83% 29.87 in 10.0 mi NNW 11.5 mph - N/A   Overcast
5:35 AM 32.0 °F 22.5 °F 27.5 °F 83% 29.88 in 7.0 mi NNW 12.7 mph - N/A   Overcast
5:55 AM 32.0 °F 22.1 °F 27.9 °F 85% 29.88 in 10.0 mi NNW 13.8 mph - N/A   Overcast
6:15 AM 32.0 °F 23.0 °F 27.9 °F 85% 29.89 in 10.0 mi NNW 11.5 mph - N/A   Overcast
6:35 AM 32.0 °F 21.6 °F 27.9 °F 85% 29.90 in 10.0 mi NNW 15.0 mph - N/A   Overcast
6:55 AM 32.0 °F 21.6 °F 27.5 °F 83% 29.90 in 10.0 mi NNW 15.0 mph - N/A   Overcast
7:15 AM 32.4 °F 23.5 °F 27.3 °F 82% 29.91 in 10.0 mi NNW 11.5 mph - N/A   Overcast
7:35 AM 32.5 °F 22.3 °F 27.5 °F 82% 29.92 in 10.0 mi North 15.0 mph - N/A   Overcast
7:55 AM 32.9 °F 22.8 °F 27.3 °F 80% 29.93 in 10.0 mi NNW 15.0 mph - N/A   Overcast
8:15 AM 32.9 °F 22.4 °F 27.0 °F 79% 29.93 in 10.0 mi North 16.1 mph 19.6 mph N/A   Overcast
8:35 AM 32.9 °F 23.2 °F 27.0 °F 79% 29.94 in 10.0 mi NNW 13.8 mph - N/A   Overcast
8:55 AM 32.9 °F 22.4 °F 26.8 °F 78% 29.94 in 10.0 mi NNW 16.1 mph - N/A   Overcast
9:15 AM 33.1 °F 24.4 °F 26.6 °F 77% 29.95 in 10.0 mi North 11.5 mph - N/A   Overcast
9:35 AM 33.1 °F 23.4 °F 26.8 °F 78% 29.96 in 10.0 mi North 13.8 mph - N/A   Overcast
9:55 AM 33.8 °F 25.3 °F 26.6 °F 75% 29.97 in 10.0 mi NNW 11.5 mph - N/A   Overcast
10:15 AM 34.2 °F 24.8 °F 26.6 °F 74% 29.97 in 10.0 mi North 13.8 mph - N/A   Overcast
10:35 AM 34.2 °F 25.7 °F 26.4 °F 73% 29.97 in 10.0 mi North 11.5 mph - N/A   Overcast
10:55 AM 34.5 °F 25.7 °F 26.4 °F 72% 29.98 in 10.0 mi North 12.7 mph - N/A   Overcast
11:15 AM 34.7 °F 26.9 °F 25.2 °F 68% 29.99 in 10.0 mi North 10.4 mph - N/A   Overcast
11:35 AM 34.9 °F 25.7 °F 23.9 °F 64% 29.99 in 10.0 mi North 13.8 mph 21.9 mph N/A   Overcast
11:55 AM 35.1 °F 25.5 °F 23.5 °F 63% 29.99 in 10.0 mi North 15.0 mph - N/A   Overcast
12:15 PM 35.2 °F 25.8 °F 23.2 °F 62% 29.99 in 10.0 mi North 15.0 mph - N/A   Overcast
12:35 PM 34.9 °F 26.2 °F 23.0 °F 62% 29.99 in 10.0 mi NNE 12.7 mph - N/A   Overcast
12:55 PM 34.9 °F 27.1 °F 23.2 °F 62% 29.99 in 10.0 mi North 10.4 mph - N/A   Overcast
1:15 PM 35.1 °F 26.9 °F 23.0 °F 61% 29.99 in 10.0 mi North 11.5 mph 16.1 mph N/A   Overcast
1:35 PM 35.2 °F 27.1 °F 22.8 °F 61% 29.99 in 10.0 mi North 11.5 mph - N/A   Overcast
1:55 PM 34.9 °F 26.6 °F 23.0 °F 62% 30.00 in 10.0 mi NNE 11.5 mph - N/A   Overcast
2:15 PM 34.7 °F 25.9 °F 23.7 °F 64% 30.00 in 10.0 mi North 12.7 mph 16.1 mph N/A   Overcast
2:35 PM 33.8 °F 24.8 °F 24.6 °F 69% 30.01 in 10.0 mi North 12.7 mph 17.3 mph N/A   Overcast
2:55 PM 34.0 °F 26.0 °F 24.6 °F 69% 30.01 in 10.0 mi North 10.4 mph - N/A   Overcast
3:15 PM 33.8 °F 25.8 °F 24.3 °F 68% 30.01 in 10.0 mi North 10.4 mph - N/A   Overcast
3:35 PM 33.3 °F 25.1 °F 24.1 °F 69% 30.02 in 10.0 mi North 10.4 mph - N/A   Overcast
3:55 PM 33.1 °F 24.9 °F 23.5 °F 68% 30.02 in 10.0 mi North 10.4 mph - N/A   Overcast
4:15 PM 32.9 °F 25.9 °F 23.5 °F 68% 30.03 in 10.0 mi North 8.1 mph - N/A   Overcast
4:35 PM 32.5 °F 24.8 °F 23.4 °F 69% 30.03 in 10.0 mi North 9.2 mph - N/A   Overcast
4:55 PM 32.2 °F 25.0 °F 23.4 °F 70% 30.04 in 10.0 mi North 8.1 mph - N/A   Overcast
5:15 PM 32.0 °F 24.2 °F 22.8 °F 69% 30.05 in 10.0 mi North 9.2 mph - N/A   Overcast
5:35 PM 32.0 °F 23.6 °F 23.0 °F 69% 30.05 in 10.0 mi North 10.4 mph - N/A   Overcast
5:55 PM 32.0 °F 24.8 °F 23.2 °F 70% 30.06 in 10.0 mi North 8.1 mph - N/A   Overcast
6:15 PM 31.5 °F 24.9 °F 23.7 °F 73% 30.06 in 10.0 mi NNE 6.9 mph - N/A   Overcast
6:35 PM 31.1 °F 25.4 °F 23.9 °F 75% 30.07 in 10.0 mi NNE 5.8 mph - N/A   Overcast
6:55 PM 31.1 °F 24.5 °F 23.0 °F 72% 30.07 in 10.0 mi North 6.9 mph - N/A   Overcast
7:15 PM 31.1 °F 25.4 °F 23.0 °F 72% 30.08 in 10.0 mi North 5.8 mph - N/A   Overcast
7:35 PM 31.1 °F 25.4 °F 22.8 °F 71% 30.08 in 10.0 mi North 5.8 mph - N/A   Overcast
7:55 PM 31.1 °F 25.4 °F 22.8 °F 71% 30.08 in 10.0 mi North 5.8 mph - N/A   Overcast
8:15 PM 30.7 °F 24.9 °F 23.0 °F 73% 30.09 in 10.0 mi North 5.8 mph - N/A   Overcast
8:35 PM 30.2 °F 20.8 °F 22.8 °F 74% 30.10 in 10.0 mi ENE 11.5 mph - N/A   Overcast
9:15 PM 29.7 °F 21.3 °F 20.3 °F 68% 30.10 in 10.0 mi ENE 9.2 mph - N/A   Overcast
9:35 PM 29.3 °F 21.5 °F 20.5 °F 70% 30.10 in 10.0 mi ENE 8.1 mph - N/A   Overcast
9:55 PM 28.9 °F 19.8 °F 21.0 °F 72% 30.10 in 10.0 mi ENE 10.4 mph - N/A   Overcast
10:15 PM 28.4 °F 17.5 °F 20.3 °F 72% 30.10 in 10.0 mi ENE 13.8 mph - N/A   Overcast
10:55 PM 27.3 °F 16.1 °F 20.7 °F 76% 30.12 in 10.0 mi East 13.8 mph - N/A   Overcast
11:35 PM 26.1 °F 16.2 °F 19.4 °F 76% 30.12 in 10.0 mi ENE 10.4 mph - N/A   Overcast